Louisville, KY

12:03 AM EDT on September 26, 2017 (GMT -0400)
Louisville International-Standiford

Weather History for KSDF - May, 2014

Change the Weather History Date:

Sunday, May 18, 2014

  Actual Average Record
Temperature  
Mean Temperature 56 °F 68 °F  
Max Temperature 68 °F 78 °F 93 °F (1911)
Min Temperature 44 °F 58 °F 40 °F (2002)
Degree Days  
Heating Degree Days 9 2  
Month to date heating degree days 66 52  
Since 1 July heating degree days 4544 4077  
Cooling Degree Days 0 4  
Month to date cooling degree days 85 54  
Year to date cooling degree days 116 97  
Growing Degree Days 6 (Base 50)    
Moisture  
Dew Point 39 °F    
Average Humidity 61    
Maximum Humidity 89    
Minimum Humidity 32    
Precipitation  
Precipitation 0.00 in 0.16 in 1.63 in (1995)
Month to date precipitation 2.87 3.16  
Year to date precipitation 18.34 17.76  
Snow  
Snow 0.00 in 0.00 in - ()
Month to date snowfall 0.0 0.0  
Since 1 July snowfall 26.0 12.5  
Snow Depth 0.00 in    
Sea Level Pressure  
Sea Level Pressure 30.26 in    
Wind  
Wind Speed 4 mph (East)    
Max Wind Speed 13 mph    
Max Gust Speed 17 mph    
Visibility 10 miles    
Events      
T = Trace of Precipitation, MM = Missing Value Source: NWS Daily Summary

Daily Weather History Graph

Daily Weather History Graph

Search for Another Location

Airport or City:

Trip Planner

Search our weather history database for the weather conditions in past years. The results will help you decide how hot, cold, wet, or windy it might be!

Date:

Astronomy

May. 18, 2014 Rise Set
Actual Time 6:29 AM EDT 8:49 PM EDT
Civil Twilight 5:59 AM EDT 9:19 PM EDT
Nautical Twilight 5:23 AM EDT 9:56 PM EDT
Astronomical Twilight 4:42 AM EDT 10:36 PM EDT
Moon No Moon Rise 10:17 AM EDT (5/18)
Length of Visible Light 15h 19m
Length of Day
14h 19m
Waning Gibbous, 81% of the Moon is Illuminated
May 18
Waning Gibbous
May 21
Last Quarter
May 28
New
Jun 5
First Quarter
Jun 13
Full

Hourly Weather History & Observations

Time (EDT) Temp. Dew Point Humidity Pressure Visibility Wind Dir Wind Speed Gust Speed Precip Events Conditions
12:56 AM 51.1 °F 37.9 °F 61% 30.25 in 10.0 mi Calm Calm - N/A   Mostly Cloudy
1:56 AM 50.0 °F 37.9 °F 63% 30.25 in 10.0 mi Calm Calm - N/A   Scattered Clouds
2:56 AM 48.9 °F 39.0 °F 69% 30.25 in 10.0 mi Calm Calm - N/A   Partly Cloudy
3:56 AM 48.0 °F 41.0 °F 77% 30.25 in 10.0 mi Calm Calm - N/A   Partly Cloudy
4:56 AM 45.0 °F 39.9 °F 82% 30.26 in 9.0 mi Calm Calm - N/A   Clear
5:56 AM 45.0 °F 39.9 °F 82% 30.27 in 9.0 mi Calm Calm - N/A   Partly Cloudy
6:56 AM 44.1 °F 41.0 °F 89% 30.28 in 7.0 mi Calm Calm - N/A   Partly Cloudy
7:56 AM 48.0 °F 43.0 °F 83% 30.29 in 8.0 mi Calm Calm - N/A   Partly Cloudy
8:56 AM 52.0 °F 41.0 °F 66% 30.30 in 10.0 mi Variable 4.6 mph - N/A   Clear
9:56 AM 57.0 °F 42.1 °F 57% 30.29 in 10.0 mi ESE 3.5 mph - N/A   Clear
10:56 AM 61.0 °F 37.0 °F 41% 30.29 in 10.0 mi ESE 8.1 mph - N/A   Partly Cloudy
11:56 AM 61.0 °F 36.0 °F 39% 30.29 in 10.0 mi NE 10.4 mph - N/A   Partly Cloudy
12:56 PM 63.0 °F 37.0 °F 38% 30.29 in 10.0 mi ENE 6.9 mph - N/A   Partly Cloudy
1:56 PM 64.0 °F 37.0 °F 37% 30.27 in 10.0 mi South 6.9 mph - N/A   Partly Cloudy
2:56 PM 64.9 °F 37.9 °F 37% 30.26 in 10.0 mi SE 8.1 mph - N/A   Partly Cloudy
3:56 PM 66.9 °F 37.9 °F 34% 30.24 in 10.0 mi Calm Calm - N/A   Scattered Clouds
4:56 PM 66.9 °F 36.0 °F 32% 30.23 in 10.0 mi Variable 3.5 mph - N/A   Scattered Clouds
5:56 PM 66.0 °F 37.0 °F 34% 30.23 in 10.0 mi Calm Calm - N/A   Partly Cloudy
6:56 PM 66.9 °F 37.0 °F 33% 30.22 in 10.0 mi Variable 3.5 mph - N/A   Partly Cloudy
7:56 PM 64.9 °F 37.0 °F 36% 30.22 in 10.0 mi NE 8.1 mph - N/A   Clear
8:56 PM 62.1 °F 37.9 °F 41% 30.22 in 10.0 mi East 4.6 mph - N/A   Clear
9:56 PM 61.0 °F 37.9 °F 42% 30.22 in 10.0 mi ENE 4.6 mph - N/A   Clear
10:56 PM 59.0 °F 41.0 °F 51% 30.24 in 10.0 mi East 5.8 mph - N/A   Clear
11:56 PM 57.0 °F 41.0 °F 55% 30.23 in 10.0 mi East 5.8 mph - N/A   Clear